STPSAT-3 (39380 NORAD) Tracking and Keplerian Element Data

This shows tracking and keplerian element data for the satellite.

Feedback or suggestion? Click here.




ElementValue
Catalog39380
NameSTPSAT-3
Epoch Orbit52139
Epoch Day62.93101023
Epoch Year2023
RAAN245.9565
Inclination40.4956
Eccentricity0.0015483
Argument of Perigee347.4317
Mean Anonmoly12.6275
Mean Motion15.97813231
Decay Rate0.00953565
L11 39380U 13064A 23062.93101023 .00953565 42428-3 20053-2 0 9997
L22 39380 40.4956 245.9565 0015483 347.4317 12.6275 15.97813231521392



Live tracking and technical data element details for STPSAT-3 (NORAD 39380). STPSAT-3 can be tracked NOW for your location showing map with azimuth and elevation plus other details from your city location.







IsCatalogInMostPopularTable: catalog: 39380, numindb: 551
Update: records affected: 1



GetName: 39380 STPSAT-3

Hit Count: updated at: Sat, 17 May 2025 09:55:24 GMT